Temp
13 13 12 12 12 12 12 12 11 11 11 11 11 11 11 10 10 10 10 10 9 9 8 8 7 7 7 6 6 6 6 6 7 7 7 6 6 7 7 7 6 6 6
12 12 12 12 12 12 12 11 11 11 11 11 11 11 11 10 10 10 10 10 9 9 8 8 7 7 7 7 7 7 7 7 7 6 6 6 6 6 6 6 6 6 6
12 11 11 11 11 11 12 11 11 11 11 11 11 11 10 10 10 10 10 9 9 9 9 8 8 8 7 7 7 7 7 7 7 7 6 6 6 6 6 6 6 6 6
11 11 11 11 11 11 11 11 11 11 11 11 10 10 10 10 10 10 10 9 9 9 9 8 8 8 7 7 7 7 7 7 7 7 6 6 6 6 6 6 6 5 5
12 11 11 11 11 11 11 11 11 11 11 10 10 10 10 10 10 10 10 9 9 9 9 8 8 8 7 7 7 7 7 7 7 7 6 6 6 6 6 6 5 5 5
11 11 11 11 11 11 10 10 10 11 10 10 10 10 10 10 10 10 10 9 9 9 9 8 8 8 8 7 7 7 7 7 7 6 6 6 6 6 6 6 5 5 5
11 10 10 10 10 10 10 10 10 10 10 10 10 10 10 10 10 9 9 9 9 9 9 8 8 8 8 7 7 7 7 7 7 6 6 6 6 5 5 5 5 5 5
10 10 10 10 10 10 10 10 9 10 10 10 10 10 10 10 10 10 9 9 9 9 9 9 8 8 8 7 7 7 7 7 7 6 6 6 6 5 5 5 5 4 5
9 9 9 9 9 9 9 9 9 9 9 10 9 9 9 9 9 9 9 9 9 9 9 9 8 8 8 7 7 7 7 7 7 6 6 6 6 6 5 5 5 5 5
8 8 9 9 9 9 9 9 9 9 9 9 9 9 9 9 9 9 9 9 9 9 9 9 8 8 8 8 7 7 7 7 7 6 6 6 6 6 5 5 5 5 4
8 8 9 9 9 9 9 9 9 9 9 9 9 9 8 8 8 8 9 9 9 9 9 9 8 8 8 8 8 7 7 7 7 7 6 6 6 6 5 5 5 5 5
8 8 8 9 9 9 9 9 9 9 9 9 8 8 8 8 8 8 8 8 8 8 8 8 8 8 8 8 8 7 7 7 7 7 6 6 6 6 6 5 5 5 5
7 7 8 8 8 9 9 9 9 9 9 9 9 8 8 8 8 8 8 8 8 8 8 8 8 8 8 8 8 7 7 7 7 7 7 7 6 6 6 5 5 5 5
7 7 7 7 7 7 8 8 8 8 8 8 9 8 8 7 7 7 7 7 7 7 8 8 8 8 8 8 7 7 7 7 7 7 7 7 6 6 6 5 5 5 5
7 7 6 6 6 6 7 7 8 8 7 7 8 8 8 7 7 7 7 7 6 6 7 7 7 7 7 7 7 7 7 7 7 7 7 7 7 7 6 6 5 5 5
7 7 7 6 6 6 6 6 7 7 7 7 8 8 8 7 7 7 7 7 7 6 6 6 6 7 7 7 7 7 7 7 7 6 7 7 7 6 6 6 6 5 5
6 6 6 6 6 6 6 6 6 7 6 6 6 6 6 6 6 6 7 7 7 6 6 6 6 6 6 6 6 6 7 6 7 7 7 6 6 6 6 6 6 5 5
6 6 6 5 5 5 5 5 6 5 5 5 5 5 5 5 6 6 6 6 6 6 6 6 6 5 5 6 5 5 6 6 6 6 6 6 6 6 6 6 6 5 5
5 5 5 5 5 5 5 5 5 5 5 5 5 5 5 4 5 5 5 5 6 6 6 6 5 5 5 5 4 4 4 5 5 5 6 6 6 6 5 5 5 5 5
4 4 4 3 4 4 5 5 5 5 4 4 4 4 5 5 5 5 5 5 5 5 5 5 4 4 4 4 4 3 3 4 4 4 4 4 4 5 5 5 5 5 5
4 3 3 3 2 3 4 4 5 5 5 4 4 4 4 4 5 5 5 5 5 5 5 5 5 4 4 4 4 3 2 4 3 4 3 2 4 4 3 2 3 5 5
2 2 1 1 2 2 3 3 4 3 4 4 4 4 4 4 4 4 4 5 5 5 5 5 5 5 5 5 4 4 3 4 3 3 3 3 3 1 2 4 4 4 5
0 0 -0 0 1 1 2 2 3 3 4 4 4 4 4 3 3 4 4 4 5 5 5 5 5 5 5 5 5 4 4 4 4 4 4 4 3 3 3 3 3 4 4
-1 -0 -0 -0 0 -1 1 2 3 3 3 4 4 4 3 3 3 4 4 4 4 5 5 5 5 5 5 5 5 5 4 4 4 4 4 4 3 3 4 3 3 4 5
-1 -1 -1 -1 -0 -3 -0 1 2 3 3 3 3 3 3 3 3 3 4 4 4 5 5 5 5 5 6 5 5 5 5 4 4 3 3 3 3 3 4 4 3 4 4
-2 -1 -1 -1 -2 -1 -3 -1 1 2 3 3 3 3 3 3 4 4 4 4 4 5 5 5 5 5 5 5 5 5 5 5 5 4 3 3 3 3 3 3 4 3 4
Height
3154 3154 3154 3155 3156 3156 3157 3158 3160 3162 3162 3162 3162 3162 3161 3161 3161 3160 3159 3159 3160 3160 3160 3161 3161 3161 3161 3162 3162 3163 3163 3164 3164 3164 3164 3164 3165 3165 3165 3165 3166 3167 3168
3153 3153 3154 3154 3156 3156 3157 3158 3159 3161 3161 3162 3162 3162 3161 3162 3162 3161 3161 3160 3160 3160 3161 3161 3160 3161 3161 3162 3162 3163 3163 3164 3164 3164 3164 3165 3165 3165 3165 3166 3166 3167 3167
3153 3154 3155 3155 3155 3156 3156 3158 3159 3160 3160 3161 3161 3161 3162 3162 3162 3162 3161 3160 3160 3160 3160 3160 3160 3160 3161 3161 3162 3163 3163 3164 3164 3164 3164 3165 3165 3165 3166 3166 3166 3167 3168
3154 3154 3154 3155 3155 3156 3157 3157 3158 3159 3160 3160 3160 3161 3162 3162 3162 3162 3162 3161 3160 3160 3160 3160 3160 3160 3161 3161 3162 3163 3163 3164 3164 3164 3164 3164 3164 3165 3166 3166 3167 3168 3169
3153 3153 3153 3154 3154 3154 3155 3156 3157 3158 3159 3159 3160 3160 3160 3161 3161 3162 3161 3161 3160 3160 3160 3160 3160 3160 3160 3161 3162 3163 3163 3163 3163 3163 3163 3163 3164 3165 3166 3166 3166 3167 3168
3151 3152 3152 3152 3152 3152 3152 3154 3155 3155 3156 3158 3159 3159 3159 3160 3160 3161 3161 3160 3160 3160 3160 3160 3159 3159 3160 3159 3160 3162 3162 3163 3163 3162 3163 3163 3164 3165 3165 3166 3166 3167 3168
3148 3148 3149 3149 3150 3150 3151 3152 3152 3153 3154 3155 3156 3157 3158 3158 3159 3159 3160 3160 3160 3160 3159 3159 3159 3159 3159 3158 3159 3160 3161 3161 3161 3161 3161 3162 3162 3163 3164 3164 3165 3166 3168
3146 3146 3146 3147 3148 3148 3148 3148 3149 3150 3151 3152 3153 3154 3155 3156 3156 3157 3158 3158 3159 3159 3159 3158 3158 3158 3157 3157 3158 3158 3159 3160 3160 3160 3160 3161 3161 3162 3163 3163 3164 3165 3166
3143 3144 3144 3144 3145 3146 3146 3145 3145 3146 3147 3148 3149 3151 3152 3153 3154 3155 3156 3157 3157 3157 3157 3157 3157 3156 3156 3155 3155 3156 3157 3158 3158 3158 3159 3159 3160 3161 3161 3161 3161 3163 3165
3139 3140 3140 3140 3141 3141 3141 3141 3141 3141 3141 3142 3144 3145 3147 3149 3150 3152 3153 3154 3155 3155 3155 3155 3155 3155 3154 3154 3153 3154 3155 3155 3156 3156 3156 3157 3158 3159 3160 3159 3160 3161 3162
3134 3134 3135 3135 3135 3135 3137 3137 3136 3136 3137 3137 3138 3139 3141 3143 3145 3147 3149 3150 3152 3152 3152 3152 3152 3152 3152 3152 3151 3152 3153 3153 3154 3154 3155 3155 3155 3156 3157 3158 3158 3159 3160
3128 3128 3128 3129 3130 3129 3129 3130 3131 3130 3130 3131 3132 3134 3136 3138 3140 3142 3144 3145 3147 3147 3148 3149 3149 3149 3149 3149 3149 3149 3150 3151 3152 3152 3152 3153 3153 3153 3154 3156 3157 3157 3157
3120 3121 3122 3121 3123 3124 3124 3123 3124 3124 3124 3124 3125 3127 3128 3131 3133 3136 3138 3139 3141 3143 3144 3144 3145 3145 3146 3146 3145 3146 3147 3148 3149 3151 3151 3150 3151 3151 3152 3152 3154 3155 3155
3111 3112 3114 3115 3116 3117 3118 3118 3118 3117 3117 3119 3119 3119 3121 3124 3127 3130 3131 3132 3134 3136 3138 3139 3140 3141 3142 3142 3142 3142 3143 3145 3146 3148 3149 3148 3148 3148 3149 3150 3151 3152 3152
3105 3105 3106 3107 3108 3109 3112 3113 3112 3111 3112 3112 3112 3113 3113 3115 3118 3121 3123 3124 3127 3129 3131 3132 3135 3136 3136 3137 3138 3138 3139 3140 3142 3143 3145 3146 3146 3146 3146 3146 3147 3148 3149
3096 3098 3099 3100 3100 3102 3104 3106 3106 3105 3105 3105 3105 3106 3107 3109 3110 3112 3114 3116 3119 3121 3122 3126 3127 3128 3129 3130 3131 3132 3134 3135 3136 3136 3139 3141 3142 3143 3142 3143 3144 3144 3145
3088 3088 3090 3092 3094 3096 3098 3099 3100 3100 3099 3100 3100 3099 3100 3102 3104 3105 3106 3108 3110 3112 3115 3117 3118 3120 3121 3122 3124 3125 3127 3127 3129 3131 3132 3134 3136 3138 3139 3139 3140 3140 3140
3079 3080 3081 3083 3087 3089 3091 3093 3094 3092 3093 3094 3094 3095 3095 3094 3096 3098 3099 3101 3102 3103 3106 3108 3109 3111 3112 3112 3114 3117 3119 3120 3122 3124 3126 3128 3130 3131 3132 3134 3135 3136 3137
3070 3070 3073 3075 3079 3083 3086 3087 3088 3087 3087 3088 3088 3089 3089 3089 3088 3089 3089 3091 3093 3094 3097 3099 3099 3101 3102 3102 3104 3108 3109 3112 3113 3116 3119 3121 3123 3124 3124 3126 3129 3130 3131
3064 3065 3067 3068 3072 3076 3078 3080 3082 3082 3082 3082 3081 3081 3080 3080 3080 3081 3082 3083 3084 3085 3087 3089 3087 3089 3090 3085 3094 3089 3096 3101 3104 3105 3108 3111 3115 3116 3118 3121 3124 3124 3125
3059 3059 3060 3062 3065 3068 3072 3073 3074 3075 3075 3076 3075 3073 3072 3070 3070 3071 3073 3075 3075 3075 3078 3080 3081 3080 3080 3080 3079 3078 3087 3092 3090 3098 3100 3099 3106 3108 3108 3110 3114 3115 3117
3053 3054 3055 3057 3060 3062 3064 3066 3068 3069 3069 3069 3067 3066 3063 3062 3062 3062 3062 3064 3065 3066 3068 3070 3072 3072 3073 3076 3073 3076 3076 3078 3078 3088 3089 3091 3095 3090 3101 3106 3105 3107 3109
3047 3048 3049 3051 3053 3055 3058 3061 3062 3063 3063 3064 3063 3060 3056 3055 3054 3053 3054 3054 3055 3056 3058 3059 3060 3062 3063 3066 3068 3069 3067 3066 3070 3076 3079 3083 3084 3087 3091 3095 3094 3099 3099
3042 3041 3042 3042 3044 3045 3049 3054 3055 3056 3056 3056 3055 3053 3050 3048 3046 3045 3045 3045 3045 3046 3048 3049 3050 3050 3051 3053 3057 3061 3062 3063 3063 3063 3067 3071 3074 3076 3080 3084 3083 3090 3090
3034 3037 3036 3036 3039 3035 3040 3045 3048 3048 3049 3048 3047 3045 3044 3041 3040 3037 3036 3035 3035 3035 3036 3038 3040 3041 3041 3042 3044 3046 3050 3053 3054 3053 3054 3059 3062 3066 3070 3073 3075 3079 3081
3029 3031 3030 3031 3030 3031 3030 3037 3040 3040 3041 3040 3038 3037 3035 3034 3032 3029 3027 3026 3025 3024 3025 3026 3028 3029 3030 3031 3033 3034 3036 3038 3040 3044 3045 3046 3051 3055 3060 3062 3062 3066 3071
Wind_Speed
12 12 12 12 11 13 12 9 7 6 5 5 6 6 6 6 7 7 5 4 5 4 5 8 8 7 6 6 6 5 5 5 4 3 3 2 1 2 3 3 4 5 5
11 12 11 12 12 13 14 13 11 10 8 8 8 6 5 6 6 6 6 5 4 4 6 7 7 6 6 6 6 6 6 5 4 5 4 3 2 3 4 3 3 3 4
9 9 8 10 13 15 16 16 15 14 12 10 10 10 9 8 8 8 7 7 6 5 5 6 7 7 8 8 7 6 5 3 4 5 4 3 4 4 3 3 4 4 3
6 6 8 10 12 17 18 19 19 17 15 14 12 12 12 11 9 10 9 8 7 6 6 6 7 8 8 9 8 7 5 3 4 4 2 3 5 5 5 4 2 2 1
7 7 7 8 11 16 21 21 22 21 20 18 15 14 12 12 11 10 11 10 9 8 7 7 8 8 8 9 9 8 6 3 4 4 2 3 3 5 4 6 4 5 4
12 12 13 14 16 16 22 25 25 25 24 22 20 18 16 15 13 11 11 12 11 10 9 8 8 9 9 9 9 9 7 5 4 4 4 3 3 3 3 5 6 5 5
16 15 14 14 13 16 16 26 29 28 27 26 24 22 20 19 17 14 12 12 13 12 11 10 9 9 10 10 9 9 8 7 5 6 7 5 4 6 5 8 6 7 7
19 17 16 14 15 15 17 20 26 30 29 28 27 26 24 23 21 19 17 14 14 14 14 12 11 11 10 10 10 10 9 8 7 7 8 8 6 5 8 8 12 10 8
20 19 19 19 20 19 18 19 23 27 32 32 30 29 27 26 25 23 21 18 16 15 15 14 13 12 12 11 11 11 10 9 8 9 9 10 8 7 7 5 6 12 10
18 20 23 25 27 25 24 23 22 26 29 34 34 32 31 29 28 26 24 23 20 17 17 16 15 15 14 14 13 12 10 10 9 10 11 12 11 10 11 9 9 12 11
22 23 24 25 27 27 27 26 26 25 28 31 36 36 34 33 31 29 28 26 24 21 19 19 19 18 17 16 15 14 12 11 10 10 11 13 13 13 12 11 8 10 13
25 26 28 30 30 31 29 26 26 29 30 31 33 37 37 36 34 32 30 29 28 26 24 22 22 20 20 18 17 17 14 13 11 10 11 13 14 15 15 14 13 13 14
27 28 30 32 33 30 31 32 29 28 32 34 33 35 38 38 36 35 33 32 31 30 28 26 25 23 20 20 20 19 17 16 14 12 11 12 14 16 16 16 15 15 16
34 30 31 33 34 34 35 33 34 31 29 32 34 36 38 39 38 37 36 35 34 32 31 30 28 26 24 23 23 22 21 19 16 15 14 12 14 16 17 17 17 18 18
39 38 35 35 34 34 33 35 36 32 28 28 32 35 39 40 40 39 39 38 36 34 34 33 31 30 29 27 26 26 24 22 20 19 17 16 14 14 16 18 19 19 20
43 42 40 36 39 36 33 30 32 33 32 32 29 31 38 41 42 42 43 42 41 39 37 35 34 34 33 32 30 29 28 27 25 24 21 19 16 16 16 17 20 21 21
40 38 38 38 36 36 33 31 33 34 34 30 26 24 29 39 42 43 44 46 45 43 39 39 39 38 36 35 34 33 33 32 30 28 25 23 20 19 18 17 18 21 21
40 38 36 35 32 34 32 33 32 33 34 31 28 27 29 31 37 42 45 45 45 45 43 43 43 42 41 40 37 34 36 36 35 34 31 27 25 23 22 21 20 20 22
43 43 37 31 30 31 35 34 32 32 31 30 30 32 34 34 34 37 41 41 43 44 46 45 44 45 46 51 55 47 37 36 38 36 36 33 31 28 27 26 24 23 23
41 42 38 32 31 33 35 35 33 32 32 32 34 37 40 41 39 39 41 44 48 46 44 42 45 46 48 45 59 57 53 47 43 37 37 37 33 29 29 27 27 25 24
33 35 35 34 34 35 36 35 34 33 34 34 37 40 40 38 37 38 42 43 44 47 46 45 44 40 44 37 44 47 53 42 60 48 44 37 36 37 40 34 31 30 27
26 31 33 36 37 37 36 35 34 33 34 35 36 40 40 39 39 39 40 43 46 46 47 45 45 45 45 40 38 38 44 38 42 56 53 49 48 52 47 41 36 34 31
26 33 36 37 38 36 34 32 33 34 35 32 37 41 37 38 39 40 41 41 43 47 48 48 48 47 46 43 40 41 40 41 38 44 45 39 42 43 44 42 46 36 32
29 34 36 36 40 32 32 30 33 34 33 37 36 34 33 33 35 36 39 41 41 43 45 46 47 49 49 48 48 46 47 46 47 51 49 43 39 36 35 38 34 40 33
33 36 36 34 37 16 22 27 32 28 36 34 34 32 34 32 33 34 36 38 39 39 41 43 44 45 47 48 48 49 48 49 50 51 52 48 47 43 36 37 34 43 36
31 36 34 33 30 33 25 23 25 26 30 34 39 36 35 32 34 36 35 37 38 39 40 40 41 42 44 45 46 48 50 50 52 52 52 51 49 47 40 42 36 46 44
Wind_Direction
209 202 197 199 202 196 200 207 214 233 274 309 327 343 360 1 348 337 316 282 268 244 206 196 202 197 202 220 238 249 253 252 253 251 241 232 167 158 145 140 120 110 109
231 209 207 209 214 212 208 213 220 225 254 283 301 316 332 347 335 329 328 311 290 264 233 216 217 210 216 225 235 245 252 261 271 253 238 208 184 191 179 160 135 131 126
241 228 226 235 230 226 219 219 223 226 236 255 281 296 306 324 335 330 328 325 318 298 269 252 249 240 234 236 239 243 256 266 261 251 242 207 204 216 208 191 164 144 126
251 247 252 253 254 242 235 229 228 229 235 241 256 277 296 308 321 323 318 323 325 321 310 287 265 258 252 252 255 260 272 277 275 272 247 215 227 229 218 208 200 157 158
285 279 271 275 270 250 240 238 236 236 236 240 242 255 269 286 302 311 313 315 321 322 317 307 294 281 269 266 265 267 270 277 266 274 250 227 247 254 223 200 196 207 197
317 299 290 283 277 266 245 241 241 239 239 241 244 247 251 264 277 292 303 305 308 315 318 318 311 304 288 275 274 276 277 278 272 274 271 254 251 251 234 241 247 208 202
309 307 309 295 279 269 264 252 244 243 243 242 244 249 252 252 260 270 284 295 297 302 309 310 309 306 297 288 284 282 280 279 269 262 273 265 253 213 248 244 221 220 224
302 304 308 306 300 291 269 259 255 251 248 246 245 246 249 251 254 259 269 280 291 292 293 297 302 300 295 291 289 286 289 287 278 263 272 268 246 226 257 255 234 235 228
295 296 299 300 301 297 286 275 258 252 249 247 245 246 247 249 250 252 257 262 272 281 282 284 285 288 291 291 289 288 288 284 279 266 265 266 262 237 239 264 254 222 225
289 293 294 298 300 294 291 287 272 256 250 247 244 243 244 245 247 248 249 251 256 265 270 274 276 277 279 284 285 284 284 278 270 262 257 259 264 263 244 266 269 230 233
278 285 289 294 298 298 295 283 276 270 257 250 246 244 241 243 244 246 248 249 251 254 259 264 269 270 271 272 277 279 280 278 277 266 257 260 261 260 256 263 255 226 241
276 277 281 291 290 293 295 291 287 269 260 252 248 246 245 244 244 246 248 248 248 248 250 254 259 263 267 269 268 272 273 271 274 272 267 263 262 263 259 249 251 253 254
270 271 275 278 284 286 292 293 293 288 266 255 248 246 244 244 243 244 247 249 249 249 249 250 255 260 263 264 263 263 267 270 270 268 268 271 264 263 260 257 248 246 248
264 266 270 273 275 280 285 290 294 293 278 264 252 245 244 243 243 243 244 246 248 250 251 251 251 253 255 257 259 259 262 266 270 271 264 262 264 264 261 256 255 248 247
265 266 268 272 274 277 280 286 290 288 275 269 261 252 244 239 240 241 242 243 246 248 249 251 251 252 253 254 255 257 258 260 261 262 262 259 256 266 271 265 254 254 251
269 267 265 265 270 276 283 285 287 290 276 269 270 263 253 245 241 240 241 242 243 244 245 249 251 251 251 252 253 253 255 256 257 257 257 257 255 257 259 263 263 259 259
264 264 261 262 267 269 273 278 288 288 282 277 274 268 257 251 248 246 244 245 244 244 245 246 248 249 248 250 253 255 254 253 253 255 255 254 249 249 251 256 260 260 260
265 267 270 264 260 263 269 278 280 281 278 277 279 280 279 264 252 250 251 249 249 249 249 248 248 247 247 248 250 256 259 257 255 254 254 254 248 244 243 245 248 254 258
272 275 279 273 262 265 268 274 277 279 277 276 278 283 283 275 269 258 252 252 253 254 253 251 252 251 248 244 240 238 258 259 259 259 255 253 250 243 240 240 240 245 249
272 279 287 274 255 258 260 267 272 276 275 279 286 286 286 278 272 264 256 254 254 255 256 256 256 255 250 241 252 262 232 238 251 248 254 256 252 249 249 249 248 245 249
276 282 280 267 245 243 253 255 260 266 273 279 284 295 292 281 273 268 259 255 255 255 256 256 259 263 265 277 263 251 241 263 236 242 246 247 246 246 240 241 251 248 246
279 273 263 251 238 235 238 244 251 256 265 276 284 295 294 283 277 272 266 261 257 257 257 257 257 261 264 267 272 270 256 268 251 240 242 264 241 240 243 247 242 244 247
267 259 246 237 232 232 238 245 250 256 263 273 284 290 288 280 276 274 271 266 262 260 259 260 259 259 261 260 259 261 265 266 259 259 257 261 254 258 255 252 243 237 246
251 238 236 233 232 228 235 246 255 262 266 272 278 285 283 281 279 276 273 271 268 264 262 260 260 261 261 262 260 254 254 258 260 264 263 261 258 260 254 257 246 235 240
229 242 237 234 242 236 233 246 251 254 260 272 280 284 278 278 281 279 276 274 273 270 267 264 261 260 260 260 260 262 259 255 254 259 263 263 263 259 260 257 256 232 237
230 238 243 242 242 259 231 240 247 259 265 279 282 279 285 275 278 277 277 276 274 273 272 270 267 263 262 261 261 260 260 260 260 259 260 262 265 264 260 259 253 229 241